Location: Alta
(39.2070°N, 120.8111°W)
Time: 07:02:25
(UTC+00:00)

CZ-4B DEB - Pass Details

Date: 10 December 2023
Orbit: 838 x 858 km, 99.0° (Epoch: 02 March)

Event Time Altitude Azimuth Distance (km) Brightness Sun altitude
Rises 04:07:21 0° 199° (SSW) 3,413 7.5 -39.3°
Reaches altitude 10° 04:10:11 10° 213° (SSW) 2,484 6.9 -39.9°
Enters shadow 04:11:11 14° 221° (SW) 2,204 6.7 -40.0°
Exits shadow 04:15:02 23° 274° (W) 1,728 6.3 -40.8°
Drops below altitude 10° 04:18:56 10° 318° (NW) 2,499 7.0 -41.6°
Sets 04:21:48 0° 332° (NNW) 3,440 7.7 -42.1°
